Regional Weather Roundup
Issued by NWS

Home | Current Version | Previous Version | Graphics & Text | Print | Product List | Glossary On
Versions: 1 2 3 4 5 6 7 8 9 10 11 12 13 14 15 16 17 18 19 20 21 22 23 24 25 26 27 28 29 30 31 32 33 34 35 36 37 38 39 40 41 42 43 44 45 46 47 48 49 50
000
ASUS43 KIND 260909
RWRIN

WEATHER ROUNDUP FOR INDIANA
NATIONAL WEATHER SERVICE INDIANAPOLIS IN
500 AM EDT FRI MAY 26 2017

NOTE: "FAIR" INDICATES FEW OR NO CLOUDS BELOW 12,000 FEET WITH NO
SIGNIFICANT WEATHER AND/OR OBSTRUCTIONS TO VISIBILITY.

* - STATION DOES NOT REPORT WEATHER SUCH AS PRECIPITATION OR FOG.

+ - STATION NOT QUALITY CONTROLLED BY THE NATIONAL WEATHER SERVICE.
    USE DATA WITH CAUTION...ESPECIALLY DEWPOINT AND RELATIVE
    HUMIDITY OBSERVATIONS.

INZ001>003-010>013-019-020-261000-
NORTHWEST INDIANA

CITY           SKY/WX    TMP DP  RH WIND       PRES   REMARKS
GARY /AIRPORT/ CLEAR     49  49 100 CALM      29.84R FOG
KNOX *+        CLEAR     50  48  93 CALM      29.82R
LA PORTE +     CLEAR     51  50  95 NW5       29.83R
MICHIGAN CITY+ PTCLDY    46  46 100 CALM      29.83R FOG
MONTICELLO +   CLEAR     51  49  95 CALM      29.82S
RENSSELAER +   CLEAR     52  50  93 CALM      29.83S FOG
VALPARAISO     CLEAR     53  51  93 CALM      29.83R

$$

LMZ046-743>745-261000-
SOUTHERN LAKE MICHIGAN

STATION/POSITION TIME  TEMP    WIND        PRES    WAVE
                       AIR SEA DIR/SP/G            HT
                 (UTC) (F)     (DEG/KT/KT) (MB)    (FT)
BURNS HARBOR     0830   56      CALM  /  2 1010.5R
MICHIGAN CITY    0840   54     250/  7/  8   N/A
5NW MICH CITY    0900   52 51  220/  2/  4   N/A     2

$$

INZ004-005-014>016-021>024-261000-
NORTH CENTRAL INDIANA

CITY           SKY/WX    TMP DP  RH WIND       PRES   REMARKS
GOSHEN         CLOUDY    51  49  92 W8        29.81R FOG
LOGANSPORT +   CLEAR     50  48  93 W5        29.83S
PERU/GRISSOM   CLEAR     51  51 100 W6        29.81R
ROCHESTER +    CLEAR     54  52  94 W5        29.82S
SOUTH BEND     CLEAR     48  47  96 SW3       29.82R
WARSAW +       CLOUDY    50  50 100 W7        29.81R FOG

$$

INZ006>009-017-018-025>027-261000-
NORTHEAST INDIANA

CITY           SKY/WX    TMP DP  RH WIND       PRES   REMARKS
AUBURN +       CLOUDY    52  50  93 W9        29.80R FOG
FORT WAYNE     MOCLDY    53  50  89 W12       29.80R
HUNTINGTON +   CLEAR     51  50  95 W8        29.80R
KENDALLVILLE + FOG       51  51 100 W8        29.80R VSB 1

$$

INZ028-029-035-036-043>045-051>053-261000-
WEST CENTRAL INDIANA

CITY           SKY/WX    TMP DP  RH WIND       PRES   REMARKS
CRAWFORDSVL +    N/A     49  49 100 CALM      29.83S FOG
GREENCASTLE +    N/A     48  48 100 CALM      29.85R FOG
LAFAYETTE      FOG       49  49 100 CALM      29.83S VSB 1/4
TERRE HAUTE    CLOUDY    53  51  93 CALM      29.85R FOG

$$

INZ030>032-037>040-046>048-054>057-064-065-261000-
CENTRAL INDIANA

CITY           SKY/WX    TMP DP  RH WIND       PRES   REMARKS
CP ATTERBURY + FOG       50  50 100 CALM      29.85S VSB 3/4
FISHERS *+     CLEAR     50  50 100 CALM      29.85R
FRANKFORT +    CLEAR     54  52  95 CALM      29.85R FOG
GREENWOOD *+   CLEAR     54  51  92 CALM      29.85R
INDIANAPOLIS   PTCLDY    52  51  97 W5        29.84R FOG
-EAGLE CREEK   CLEAR     52  49  89 CALM      29.84R FOG
KOKOMO +       CLEAR     53  51  93 W7        29.83R
MARION +       CLEAR     52  50  93 W6        29.83R
MT COMFORT *+  CLEAR     52  52 100 SW3       29.84R
SHELBYVILLE    CLEAR     54  49  83 S3        29.84R HAZE
ZIONSVILLE +   CLEAR     50  50  98 CALM      29.85R FOG

$$

INZ033-034-041-042-049-050-058-059-261000-
EAST CENTRAL INDIANA

CITY           SKY/WX    TMP DP  RH WIND       PRES   REMARKS
MUNCIE         CLEAR     56  53  90 W8        29.82R
RICHMOND +     CLEAR     52  52 100 W8        29.83R FOG

$$

INZ060-061-067>069-081>083-085>088-261000-
SOUTHWEST INDIANA

CITY           SKY/WX    TMP DP  RH WIND       PRES   REMARKS
EVANSVILLE     PTCLDY    57  53  86 CALM      29.85R
HUNTINGBURG *+ CLEAR     56  53  90 SE5       29.85S
WASHINGTON +   CLEAR     55  54  94 CALM      29.83S FOG

$$

INZ062-063-066-070>080-084-089>092-261000-
SOUTH CENTRAL AND SOUTHEAST INDIANA

CITY           SKY/WX    TMP DP  RH WIND       PRES   REMARKS
BEDFORD +      CLEAR     52  48  87 CALM      29.85R FOG
BLOOMINGTON    CLEAR     50  48  93 CALM      29.84S
MADISON *+       N/A     52  52 100 CALM      29.88R
NORTH VERNON + CLEAR     50  50 100 CALM      29.86R FOG
SEYMOUR +      CLEAR     54  52  94 CALM      29.85R FOG

$$




USA.gov is the U.S. government's official web portal to all federal, state and local government web resources and services.